Regional Weather Roundup
Issued by NWS

Home | Current Version | Previous Version | Text Only | Print | Product List | Glossary On
Versions: 1 2 3 4 5 6 7 8 9 10 11 12 13 14 15 16 17 18 19 20 21 22 23 24 25 26 27 28 29 30 31 32 33 34 35 36 37 38 39 40 41 42 43 44 45 46 47 48 49 50
000
ASUS46 KPQR 012310
RWROR

OREGON REGIONAL WEATHER ROUNDUP
NATIONAL WEATHER SERVICE PORTLAND OR
400 PM PDT WED JUL 01 2015

NOTE: "FAIR" INDICATES FEW OR NO CLOUDS BELOW 12,000 FEET WITH
NO SIGNIFICANT WEATHER AND/OR OBSTRUCTIONS TO VISIBILITY.

ORZ001>013-020000-
NORTHWEST OREGON


CITY           SKY/WX    TMP DP  RH WIND       PRES   REMARKS
ASTORIA        SUNNY     78  58  49 NW20G28   29.95F
NEWPORT        SUNNY     61  55  82 NW12G17   30.01S
PORTLAND       SUNNY     92  56  29 NW10      29.88F HX  90
VANCOUVER WA   SUNNY     93  53  25 NW10      29.88F HX  90
SCAPPOOSE      SUNNY     95  52  23 N10       29.88F HX  92
HILLSBORO      SUNNY     95  54  25 NE13      29.88F HX  93
AURORA         SUNNY     94  48  20 NE9       29.89F HX  90
MCMINNVILLE    SUNNY     97  49  19 N8        29.88F HX  94
SALEM          SUNNY     96  48  19 N10       29.87F HX  92
CORVALLIS      SUNNY     99  48  18 NE10      29.89F HX  95
EUGENE         MOSUNNY   97  49  19 N14       29.88F HX  94
$$

ORZ021-028-020000-
SOUTHWEST OREGON


CITY           SKY/WX    TMP DP  RH WIND       PRES   REMARKS
NORTH BEND     SUNNY     64  57  77 N22G30    29.96F
BROOKINGS      SUNNY     68  62  80 SE8       29.92S
ROSEBURG       SUNNY     98  54  22 NE10G16   29.86F HX  96
SEXTON SUMMIT  SUNNY     90  56  31 VRB5      30.07S
MEDFORD        MOSUNNY  107  51  15 W10       29.83F HX 104
$$

ORZ014>016-041-020000-
COLUMBIA GORGE


CITY           SKY/WX    TMP DP  RH WIND       PRES   REMARKS
TROUTDALE      SUNNY     95  54  25 VRB6      29.86F HX  93
THE DALLES     SUNNY    103  42  12 NW3       29.82F HX  98
$$

ORZ029>031-041-044-049-050-061>064-502-503-505>511-020000-
EASTERN OREGON


CITY           SKY/WX    TMP DP  RH WIND       PRES   REMARKS
REDMOND        SUNNY     99  46  16 N12G17    29.98F HX  95
BEND             N/A    N/A N/A N/A MISG        N/A
PRINEVILLE     SUNNY     99  43  14 N10G17    29.98F HX  94
KLAMATH FALLS  MOSUNNY   96  42  15 CALM      30.04F HX  92
LAKEVIEW       PTSUNNY   99  41  13 W14       30.08F HX  94
HERMISTON      SUNNY    100  51  19 NE10      29.87F HX  97
PENDLETON      SUNNY     99  44  15 VRB7      29.90F HX  95
JOHN DAY       SUNNY     98  40  13 W14       30.02F HX  94
MEACHAM        SUNNY     88  45  22 VRB5      30.07F
LA GRANDE      SUNNY     97  48  19 N13       29.98F HX  93
BAKER CITY     SUNNY     93  48  21 W10       30.02F
BURNS          SUNNY     96  40  14 SW6       30.04F HX  92
ROME             N/A    104  37  10 SW12G20   30.00F HX  98
ONTARIO        SUNNY    103  41  12 CALM      29.89F HX  98
$$


USA.gov is the U.S. government's official web portal to all federal, state and local government web resources and services.